GTI523 KLAX-KJFK

Flight info

Callsign GTI523
Flight time N/A
Altitude 33000
Route DOTSS2 CLEEE PKE OATES GUP J96 CIM/N0487F350 Q176 STL KK54K TILMN J110 VHP KI63Q KLYNE Q29 JHW Q476 WLKES PUCKY1
Aircraft B748/H-SDE3FGHIM1M2RWXY/LB1

Departure

Time 2026-05-07 12:57
Airport Los Angeles International Airport (KLAX)

Arrival

Time N/A
Airport John F. Kennedy International Airport (KJFK)
Time Latitude Longitude Altitude Speed Heading
2026-05-07 12:12 33.93309 -118.40383 140 ft 0 kts 173°
2026-05-07 12:44 33.93310 -118.40383 139 ft 1 kts 173°
2026-05-07 12:44 33.93326 -118.40386 139 ft 3 kts 171°
2026-05-07 12:44 33.93346 -118.40390 139 ft 3 kts 171°
2026-05-07 12:45 33.93362 -118.40392 139 ft 3 kts 167°
2026-05-07 12:45 33.93378 -118.40398 139 ft 3 kts 147°
2026-05-07 12:45 33.93389 -118.40408 139 ft 3 kts 116°
2026-05-07 12:45 33.93394 -118.40423 139 ft 3 kts 86°
2026-05-07 12:46 33.93391 -118.40446 139 ft 3 kts 78°
2026-05-07 12:46 33.93389 -118.40464 139 ft 1 kts 83°
2026-05-07 12:46 33.93388 -118.40465 139 ft 0 kts 83°
2026-05-07 12:49 33.93393 -118.40422 139 ft 7 kts 83°
2026-05-07 12:49 33.93402 -118.40332 139 ft 14 kts 83°
2026-05-07 12:50 33.93414 -118.40223 139 ft 13 kts 83°
2026-05-07 12:50 33.93425 -118.40118 139 ft 12 kts 83°
2026-05-07 12:50 33.93435 -118.40017 139 ft 12 kts 83°
2026-05-07 12:50 33.93445 -118.39921 139 ft 11 kts 83°
2026-05-07 12:51 33.93455 -118.39829 139 ft 11 kts 83°
2026-05-07 12:51 33.93466 -118.39716 139 ft 15 kts 83°
2026-05-07 12:51 33.93479 -118.39595 139 ft 14 kts 83°
2026-05-07 12:51 33.93491 -118.39481 139 ft 13 kts 83°
2026-05-07 12:52 33.93501 -118.39373 139 ft 13 kts 83°
2026-05-07 12:52 33.93513 -118.39258 139 ft 17 kts 83°
2026-05-07 12:52 33.93530 -118.39092 139 ft 20 kts 83°
2026-05-07 12:52 33.93541 -118.38984 139 ft 19 kts 83°
2026-05-07 12:53 33.93558 -118.38825 140 ft 19 kts 83°
2026-05-07 12:53 33.93573 -118.38675 140 ft 18 kts 83°
2026-05-07 12:53 33.93588 -118.38532 140 ft 17 kts 83°
2026-05-07 12:53 33.93601 -118.38404 140 ft 9 kts 83°
2026-05-07 12:54 33.93602 -118.38393 140 ft 0 kts 83°
2026-05-07 12:55 33.93605 -118.38365 140 ft 8 kts 83°
2026-05-07 12:55 33.93617 -118.38304 140 ft 7 kts 47°
2026-05-07 12:55 33.93665 -118.38294 140 ft 7 kts 354°
2026-05-07 12:55 33.93713 -118.38301 140 ft 7 kts 346°
2026-05-07 12:56 33.93727 -118.38349 140 ft 7 kts 262°
2026-05-07 12:56 33.93715 -118.38457 140 ft 25 kts 262°
2026-05-07 12:56 33.93673 -118.38880 140 ft 78 kts 262°
2026-05-07 12:56 33.93588 -118.39737 140 ft 129 kts 262°
2026-05-07 12:57 33.93456 -118.41001 144 ft 172 kts 263°
2026-05-07 12:57 33.93308 -118.42479 470 ft 177 kts 263°
2026-05-07 12:57 33.93162 -118.43936 1054 ft 176 kts 263°
2026-05-07 12:57 33.92917 -118.45434 1361 ft 193 kts 251°
2026-05-07 12:58 33.92310 -118.46968 1597 ft 214 kts 240°
2026-05-07 12:58 33.91416 -118.48514 1746 ft 234 kts 232°
2026-05-07 12:58 33.90226 -118.49924 1886 ft 252 kts 221°
2026-05-07 12:58 33.88978 -118.51452 2266 ft 259 kts 231°
2026-05-07 12:59 33.87861 -118.53181 2783 ft 263 kts 233°
2026-05-07 12:59 33.86630 -118.54831 3244 ft 267 kts 217°
2026-05-07 12:59 33.84931 -118.55702 3653 ft 270 kts 191°
2026-05-07 12:59 33.83067 -118.55744 4105 ft 272 kts 176°
2026-05-07 13:00 33.81190 -118.55382 4505 ft 276 kts 169°
2026-05-07 13:00 33.79317 -118.54845 4949 ft 278 kts 166°
2026-05-07 13:00 33.77429 -118.54238 5361 ft 282 kts 165°
2026-05-07 13:00 33.75492 -118.53648 5616 ft 291 kts 167°
2026-05-07 13:01 33.73492 -118.53095 5932 ft 299 kts 168°
2026-05-07 13:01 33.71485 -118.52378 6247 ft 306 kts 154°
2026-05-07 13:01 33.69819 -118.50790 6714 ft 306 kts 130°
2026-05-07 13:01 33.68681 -118.48637 7321 ft 306 kts 117°
2026-05-07 13:02 33.67857 -118.46292 7841 ft 310 kts 110°
2026-05-07 13:02 33.67156 -118.43803 8440 ft 312 kts 107°
2026-05-07 13:02 33.66508 -118.41347 9035 ft 314 kts 107°
2026-05-07 13:02 33.65806 -118.38851 9654 ft 315 kts 108°
2026-05-07 13:03 33.65076 -118.36374 10316 ft 315 kts 107°
2026-05-07 13:03 33.64577 -118.33766 10529 ft 330 kts 96°
2026-05-07 13:03 33.64373 -118.30948 10662 ft 348 kts 92°
2026-05-07 13:03 33.64321 -118.27969 10797 ft 366 kts 89°
2026-05-07 13:04 33.64354 -118.24842 10935 ft 383 kts 88°
2026-05-07 13:04 33.64399 -118.21615 11446 ft 390 kts 88°
2026-05-07 13:04 33.64426 -118.18355 12114 ft 392 kts 88°
2026-05-07 13:04 33.64466 -118.15056 12722 ft 398 kts 88°
2026-05-07 13:05 33.64486 -118.11715 13303 ft 403 kts 88°
2026-05-07 13:05 33.64490 -118.08331 13985 ft 407 kts 88°
2026-05-07 13:05 33.64487 -118.04911 14639 ft 412 kts 88°
2026-05-07 13:05 33.64480 -118.01493 15276 ft 417 kts 88°
2026-05-07 13:06 33.64470 -117.97989 15938 ft 421 kts 88°
2026-05-07 13:06 33.64459 -117.94449 16555 ft 426 kts 88°
2026-05-07 13:06 33.64448 -117.90848 17151 ft 431 kts 88°
2026-05-07 13:06 33.64436 -117.87226 17745 ft 436 kts 88°
2026-05-07 13:07 33.64424 -117.83614 18317 ft 440 kts 88°
2026-05-07 13:07 33.64529 -117.79937 18949 ft 441 kts 82°
2026-05-07 13:07 33.64972 -117.76288 19525 ft 444 kts 77°
2026-05-07 13:07 33.65607 -117.72649 20100 ft 447 kts 75°
2026-05-07 13:08 33.66345 -117.68999 20677 ft 450 kts 73°
2026-05-07 13:08 33.67094 -117.65329 21212 ft 455 kts 74°
2026-05-07 13:08 33.67826 -117.61623 21784 ft 458 kts 74°
2026-05-07 13:08 33.68580 -117.57885 22309 ft 461 kts 74°
2026-05-07 13:09 33.69319 -117.54133 22845 ft 465 kts 74°
2026-05-07 13:09 33.70051 -117.50326 23350 ft 469 kts 75°
2026-05-07 13:09 33.70771 -117.46541 23845 ft 472 kts 75°
2026-05-07 13:09 33.71501 -117.42678 24348 ft 476 kts 75°
2026-05-07 13:10 33.72234 -117.38790 24865 ft 478 kts 75°
2026-05-07 13:10 33.72970 -117.34885 25330 ft 481 kts 75°
2026-05-07 13:10 33.73711 -117.30946 25809 ft 483 kts 75°
2026-05-07 13:10 33.74454 -117.26997 26231 ft 486 kts 75°
2026-05-07 13:11 33.74994 -117.22952 26607 ft 492 kts 82°
2026-05-07 13:11 33.75165 -117.18817 27014 ft 497 kts 86°
2026-05-07 13:11 33.75089 -117.14667 27507 ft 497 kts 89°
2026-05-07 13:11 33.74921 -117.10514 28088 ft 495 kts 89°
2026-05-07 13:12 33.74803 -117.06440 28579 ft 493 kts 88°
2026-05-07 13:12 33.74712 -117.02322 29029 ft 492 kts 88°
2026-05-07 13:12 33.74624 -116.98223 29487 ft 490 kts 88°
2026-05-07 13:12 33.74532 -116.94132 29900 ft 489 kts 88°
2026-05-07 13:13 33.74437 -116.90054 30266 ft 488 kts 88°
2026-05-07 13:13 33.74339 -116.85983 30595 ft 488 kts 88°
2026-05-07 13:13 33.74238 -116.81879 30921 ft 488 kts 88°
2026-05-07 13:13 33.74137 -116.77805 31235 ft 488 kts 88°
2026-05-07 13:14 33.74035 -116.73768 31554 ft 487 kts 88°
2026-05-07 13:14 33.73931 -116.69700 31832 ft 487 kts 88°
2026-05-07 13:14 33.73826 -116.65617 32143 ft 487 kts 88°
2026-05-07 13:14 33.73721 -116.61557 32411 ft 487 kts 88°
2026-05-07 13:15 33.73614 -116.57487 32600 ft 488 kts 88°
2026-05-07 13:15 33.73524 -116.53409 32725 ft 487 kts 87°
2026-05-07 13:15 33.73439 -116.49350 32850 ft 487 kts 87°
2026-05-07 13:15 33.73347 -116.45278 32970 ft 486 kts 87°
2026-05-07 13:16 33.73165 -116.37129 32992 ft 487 kts 88°
2026-05-07 13:16 33.72939 -116.29043 32983 ft 487 kts 88°
2026-05-07 13:17 33.72701 -116.20895 32973 ft 487 kts 88°
2026-05-07 13:17 33.72461 -116.12774 32964 ft 487 kts 88°
2026-05-07 13:18 33.73170 -116.04765 32967 ft 481 kts 73°
2026-05-07 13:18 33.75014 -115.97143 32967 ft 476 kts 68°
2026-05-07 13:19 33.77154 -115.89614 32982 ft 474 kts 68°
2026-05-07 13:19 33.79260 -115.82084 32999 ft 475 kts 68°
2026-05-07 13:20 33.81343 -115.74540 33008 ft 475 kts 68°
2026-05-07 13:20 33.83405 -115.67043 33015 ft 474 kts 68°
2026-05-07 13:21 33.85512 -115.59525 33021 ft 473 kts 68°
2026-05-07 13:21 33.87592 -115.51989 33021 ft 473 kts 68°
2026-05-07 13:22 33.89653 -115.44467 33019 ft 473 kts 68°
2026-05-07 13:22 33.91692 -115.36991 33019 ft 472 kts 68°
2026-05-07 13:23 33.93737 -115.29480 33016 ft 471 kts 68°
2026-05-07 13:23 33.95773 -115.21975 33015 ft 471 kts 68°
2026-05-07 13:24 33.97803 -115.14473 33008 ft 471 kts 68°
2026-05-07 13:24 33.99825 -115.06977 33008 ft 470 kts 68°
2026-05-07 13:25 34.01860 -114.99526 33004 ft 473 kts 69°
2026-05-07 13:25 34.03887 -114.91969 32997 ft 473 kts 69°
2026-05-07 13:26 34.05897 -114.84417 32997 ft 471 kts 69°
2026-05-07 13:26 34.07894 -114.76893 32998 ft 471 kts 69°
2026-05-07 13:27 34.09893 -114.69364 32999 ft 471 kts 69°
2026-05-07 13:27 34.11910 -114.61878 32998 ft 471 kts 68°
2026-05-07 13:28 34.13946 -114.54369 32997 ft 470 kts 69°
2026-05-07 13:28 34.15970 -114.46852 32997 ft 470 kts 69°
2026-05-07 13:29 34.17984 -114.39349 32998 ft 470 kts 69°
2026-05-07 13:29 34.19993 -114.31834 33008 ft 469 kts 69°
2026-05-07 13:30 34.22027 -114.24335 33011 ft 469 kts 68°
2026-05-07 13:30 34.24065 -114.16844 33010 ft 469 kts 69°
2026-05-07 13:31 34.26072 -114.09383 33012 ft 469 kts 69°
2026-05-07 13:31 34.28080 -114.01871 33014 ft 469 kts 69°
2026-05-07 13:32 34.30080 -113.94359 33017 ft 469 kts 69°
2026-05-07 13:32 34.32073 -113.86845 33018 ft 469 kts 69°
2026-05-07 13:33 34.34064 -113.79318 33024 ft 469 kts 69°
2026-05-07 13:33 34.36035 -113.71845 33029 ft 469 kts 69°
2026-05-07 13:34 34.39003 -113.60555 33041 ft 468 kts 69°
2026-05-07 13:35 34.40974 -113.53029 33051 ft 469 kts 69°
2026-05-07 13:35 34.42943 -113.45490 33061 ft 468 kts 69°
2026-05-07 13:36 34.44892 -113.38010 33087 ft 468 kts 69°
2026-05-07 13:36 34.46846 -113.30487 33131 ft 468 kts 70°
2026-05-07 13:37 34.48798 -113.22951 33140 ft 467 kts 70°
2026-05-07 13:37 34.50740 -113.15431 33148 ft 467 kts 70°
2026-05-07 13:38 34.52663 -113.07962 33157 ft 467 kts 70°
2026-05-07 13:38 34.54281 -113.01664 33165 ft 467 kts 70°
2026-05-07 13:39 34.56519 -112.92926 33176 ft 466 kts 70°
2026-05-07 13:39 34.58115 -112.86678 33182 ft 466 kts 70°
2026-05-07 13:40 34.60031 -112.79157 33186 ft 465 kts 70°
2026-05-07 13:40 34.61935 -112.71660 33197 ft 465 kts 70°
2026-05-07 13:41 34.63834 -112.64161 33205 ft 464 kts 71°
2026-05-07 13:41 34.65729 -112.56658 33216 ft 464 kts 71°
2026-05-07 13:42 34.67619 -112.49152 33220 ft 464 kts 71°
2026-05-07 13:42 34.69493 -112.41690 33220 ft 464 kts 71°
2026-05-07 13:43 34.71368 -112.34199 33219 ft 464 kts 71°
2026-05-07 13:43 34.73244 -112.26686 33220 ft 464 kts 71°
2026-05-07 13:44 34.75115 -112.19170 33219 ft 464 kts 71°
2026-05-07 13:44 34.76982 -112.11644 33230 ft 464 kts 71°
2026-05-07 13:45 34.78869 -112.04128 33230 ft 464 kts 71°
2026-05-07 13:45 34.80731 -111.96603 33227 ft 466 kts 71°
2026-05-07 13:46 34.82587 -111.89015 33224 ft 468 kts 72°
2026-05-07 13:46 34.84442 -111.81403 33221 ft 468 kts 72°
2026-05-07 13:47 34.86284 -111.73848 33221 ft 469 kts 72°
2026-05-07 13:47 34.88092 -111.66201 33230 ft 470 kts 73°
2026-05-07 13:48 34.89803 -111.58518 33243 ft 471 kts 73°
2026-05-07 13:48 34.91519 -111.50803 33256 ft 471 kts 73°
2026-05-07 13:49 34.93230 -111.43096 33266 ft 472 kts 73°
2026-05-07 13:49 34.94944 -111.35364 33267 ft 472 kts 73°
2026-05-07 13:50 34.96660 -111.27692 33273 ft 473 kts 72°
2026-05-07 13:50 34.98420 -111.19946 33274 ft 473 kts 73°
2026-05-07 13:51 35.00154 -111.12189 33274 ft 474 kts 73°
2026-05-07 13:51 35.01869 -111.04452 33272 ft 475 kts 73°
2026-05-07 13:52 35.03589 -110.96659 33273 ft 476 kts 73°
2026-05-07 13:52 35.05304 -110.88855 33270 ft 476 kts 73°
2026-05-07 13:53 35.07020 -110.81015 33271 ft 477 kts 73°
2026-05-07 13:53 35.08719 -110.73223 33268 ft 478 kts 73°
2026-05-07 13:54 35.10427 -110.65371 33271 ft 479 kts 74°
2026-05-07 13:54 35.12135 -110.57487 33272 ft 480 kts 74°
2026-05-07 13:55 35.13842 -110.49586 33275 ft 480 kts 74°
2026-05-07 13:55 35.15540 -110.41694 33277 ft 481 kts 74°
2026-05-07 13:56 35.17237 -110.33783 33279 ft 481 kts 74°
2026-05-07 13:56 35.18931 -110.25854 33282 ft 482 kts 74°
2026-05-07 13:57 35.20622 -110.17918 33286 ft 483 kts 74°
2026-05-07 13:57 35.22299 -110.10014 33288 ft 483 kts 74°
2026-05-07 13:58 35.23981 -110.02062 33287 ft 484 kts 74°
2026-05-07 13:58 35.25665 -109.94073 33276 ft 488 kts 75°
2026-05-07 13:59 35.27362 -109.85994 33289 ft 490 kts 75°
2026-05-07 13:59 35.29054 -109.77906 33292 ft 490 kts 75°
2026-05-07 14:00 35.30740 -109.69817 33293 ft 490 kts 75°
2026-05-07 14:00 35.32412 -109.61771 33295 ft 490 kts 75°
2026-05-07 14:01 35.34090 -109.53667 33296 ft 491 kts 75°
2026-05-07 14:01 35.35763 -109.45554 33299 ft 491 kts 75°
2026-05-07 14:02 35.37434 -109.37423 33301 ft 492 kts 75°
2026-05-07 14:02 35.39100 -109.29290 33306 ft 492 kts 75°
2026-05-07 14:03 35.40789 -109.21138 33307 ft 493 kts 75°
2026-05-07 14:03 35.42452 -109.12980 33308 ft 494 kts 75°
2026-05-07 14:04 35.44088 -109.04843 33309 ft 495 kts 75°
2026-05-07 14:04 35.45734 -108.96624 33310 ft 495 kts 75°
2026-05-07 14:05 35.47383 -108.88404 33310 ft 496 kts 75°
2026-05-07 14:05 35.49404 -108.80330 33310 ft 496 kts 70°
2026-05-07 14:06 35.51630 -108.72314 33310 ft 496 kts 70°
2026-05-07 14:06 35.53811 -108.64318 33310 ft 496 kts 71°
2026-05-07 14:07 35.55982 -108.56268 33312 ft 496 kts 71°
2026-05-07 14:07 35.58144 -108.48205 33312 ft 496 kts 71°
2026-05-07 14:08 35.60346 -108.40166 33314 ft 496 kts 70°
2026-05-07 14:08 35.62521 -108.32161 33315 ft 496 kts 71°
2026-05-07 14:09 35.64688 -108.24101 33317 ft 496 kts 71°
2026-05-07 14:09 35.66832 -108.16083 33320 ft 496 kts 71°
2026-05-07 14:10 35.68979 -108.08019 33321 ft 496 kts 71°
2026-05-07 14:10 35.71122 -107.99941 33322 ft 496 kts 71°
2026-05-07 14:11 35.73248 -107.91904 33324 ft 497 kts 71°
2026-05-07 14:11 35.75379 -107.83819 33320 ft 497 kts 71°
2026-05-07 14:12 35.77511 -107.75711 33319 ft 497 kts 71°
2026-05-07 14:12 35.79636 -107.67599 33315 ft 498 kts 71°
2026-05-07 14:13 35.81748 -107.59516 33313 ft 499 kts 71°
2026-05-07 14:13 35.83874 -107.51353 33312 ft 500 kts 71°
2026-05-07 14:14 35.85998 -107.43170 33311 ft 501 kts 71°
2026-05-07 14:14 35.88115 -107.34990 33317 ft 503 kts 71°
2026-05-07 14:15 35.90240 -107.26754 33317 ft 505 kts 71°
2026-05-07 14:15 35.92368 -107.18476 33317 ft 506 kts 72°
2026-05-07 14:16 35.94485 -107.10216 33319 ft 507 kts 72°
2026-05-07 14:16 35.96610 -107.01901 33325 ft 509 kts 72°
2026-05-07 14:17 35.98735 -106.93556 33329 ft 509 kts 72°
2026-05-07 14:17 36.00857 -106.85196 33328 ft 510 kts 72°
2026-05-07 14:18 36.02956 -106.76894 33314 ft 502 kts 71°
2026-05-07 14:18 36.05023 -106.68703 33309 ft 503 kts 71°
2026-05-07 14:19 36.07102 -106.60433 33308 ft 504 kts 72°
2026-05-07 14:19 36.09183 -106.52129 33306 ft 505 kts 72°
2026-05-07 14:20 36.11259 -106.43816 33306 ft 506 kts 72°
2026-05-07 14:20 36.13319 -106.35539 33307 ft 506 kts 72°
2026-05-07 14:21 36.15390 -106.27193 33307 ft 507 kts 72°
2026-05-07 14:21 36.17452 -106.18852 33306 ft 507 kts 72°
2026-05-07 14:22 36.19497 -106.10555 33311 ft 507 kts 72°
2026-05-07 14:22 36.21216 -106.03560 33316 ft 507 kts 72°
2026-05-07 14:23 36.23594 -105.93845 33322 ft 507 kts 72°
2026-05-07 14:23 36.25640 -105.85460 33324 ft 508 kts 72°
2026-05-07 14:24 36.27677 -105.77081 33328 ft 508 kts 72°
2026-05-07 14:24 36.29710 -105.68693 33334 ft 508 kts 72°
2026-05-07 14:25 36.31743 -105.60276 33341 ft 509 kts 72°
2026-05-07 14:25 36.33766 -105.51870 33348 ft 509 kts 72°
2026-05-07 14:26 36.35446 -105.44868 33353 ft 510 kts 72°
2026-05-07 14:26 36.37797 -105.35037 33358 ft 511 kts 72°
2026-05-07 14:27 36.39475 -105.27994 33360 ft 511 kts 72°
2026-05-07 14:27 36.41518 -105.19525 33359 ft 512 kts 72°
2026-05-07 14:28 36.43531 -105.11015 33356 ft 513 kts 72°
2026-05-07 14:28 36.45527 -105.02491 33348 ft 515 kts 72°
2026-05-07 14:29 36.47513 -104.93994 33330 ft 515 kts 72°